Lapse_Rate
9.0 8.9 8.8 8.7 8.1 7.8 7.6 7.3 6.7 6.4 6.3 5.8 5.9 6.2 6.4 6.5 6.5 6.5 6.4 6.3 6.0 6.0 6.0 6.2 6.1 6.2 6.4 6.6 6.5 6.6 6.6 6.6 6.6
8.7 8.6 8.6 8.5 8.4 7.9 7.6 7.4 7.1 6.7 6.4 5.9 5.5 6.1 6.2 6.4 6.7 6.6 6.4 6.2 6.0 6.0 5.9 6.2 6.6 6.5 6.5 6.5 6.5 6.7 6.8 6.7 6.6
8.5 8.6 8.5 8.5 8.3 8.1 8.0 7.5 7.2 7.0 6.4 6.2 6.1 6.1 6.3 6.6 6.8 6.6 6.3 6.1 6.2 6.1 6.1 6.4 6.9 6.7 6.6 6.6 6.8 6.8 6.9 6.9 6.9
8.4 8.6 8.5 8.9 8.6 8.2 7.9 7.8 7.5 6.9 6.6 6.2 6.2 6.2 6.5 6.6 6.9 6.7 6.4 6.3 6.4 6.4 6.4 6.6 6.9 6.8 6.7 6.8 6.8 6.9 7.0 7.1 7.1
8.5 8.7 8.9 8.5 9.0 8.3 8.2 7.8 7.5 7.3 7.0 6.5 6.5 6.6 6.7 6.6 6.7 6.7 6.5 6.5 6.6 6.7 6.7 6.8 6.8 6.8 6.7 6.7 6.9 7.0 7.1 7.2 7.1
8.5 8.8 8.8 8.4 8.5 8.4 8.3 8.1 7.8 7.4 7.1 7.1 6.8 6.7 6.6 6.6 6.4 6.6 6.6 6.5 6.6 6.8 6.8 6.8 6.8 6.8 6.8 6.7 6.7 6.8 7.0 7.1 7.0
8.5 8.4 8.4 8.3 8.2 8.0 8.6 8.3 8.1 7.8 7.5 7.1 7.1 7.1 6.8 6.8 6.5 6.3 6.5 6.4 6.6 6.9 6.9 6.9 6.9 6.7 6.7 6.7 6.7 6.8 7.0 7.0 7.0
8.4 8.6 8.4 8.3 8.1 8.1 8.3 8.3 8.3 8.3 7.8 7.5 7.6 7.1 7.0 7.7 7.4 6.5 6.4 6.5 6.7 7.0 7.0 7.1 7.0 6.7 6.8 6.8 6.8 6.9 7.0 6.9 6.8
8.5 8.9 8.8 8.6 8.3 8.4 8.6 8.6 8.7 8.8 8.2 7.7 7.6 7.6 7.7 7.3 7.5 7.5 7.4 7.2 7.1 7.2 7.2 7.1 7.0 7.1 6.9 6.8 6.9 7.0 7.0 6.8 6.9
8.4 8.8 8.8 8.6 8.4 8.3 8.6 8.4 8.6 8.4 8.7 8.4 8.2 7.9 7.7 7.6 7.5 7.5 7.5 7.5 7.4 7.4 7.4 7.2 7.2 7.3 7.1 7.1 7.1 7.0 7.0 7.0 7.0
8.5 8.8 8.9 8.5 8.4 8.6 8.5 8.6 8.6 9.1 8.9 8.7 8.6 8.5 8.0 7.4 7.5 7.3 7.1 7.3 7.5 7.5 7.4 7.5 7.5 7.4 7.4 7.4 7.4 7.3 7.1 7.0 7.0
8.4 8.7 8.8 8.8 8.4 8.3 8.5 8.5 8.8 8.6 9.0 8.8 8.5 8.4 8.1 7.9 7.7 7.5 7.4 7.4 7.3 7.2 7.1 7.1 7.3 7.2 7.2 7.3 7.5 7.5 7.2 6.9 6.9
8.1 8.8 8.5 8.6 8.5 8.2 8.3 8.6 8.7 8.9 9.1 8.3 8.4 8.4 8.7 8.1 7.9 7.8 7.7 7.5 7.4 7.3 7.2 7.3 7.2 7.2 7.3 7.2 7.3 7.4 7.5 7.2 6.9
7.6 8.1 8.2 8.3 8.0 8.0 8.0 8.0 8.3 8.4 8.7 8.3 8.7 8.4 8.2 8.0 8.2 8.2 8.2 8.0 7.7 7.6 7.5 7.4 7.3 7.3 7.3 7.2 7.1 7.2 7.2 7.1 6.9
6.6 6.7 7.0 7.5 7.8 7.4 7.1 7.3 7.4 7.9 8.0 8.2 8.0 8.0 8.1 7.9 7.5 7.9 7.8 7.8 7.8 7.8 7.7 7.5 7.3 7.2 7.2 7.1 7.5 7.8 7.8 7.7 7.5
6.4 6.3 6.2 6.4 6.7 6.9 6.7 6.4 7.0 7.3 7.7 8.2 7.9 8.1 8.1 7.8 8.3 8.1 7.9 7.8 7.8 7.8 7.7 7.8 7.8 7.9 7.9 7.8 7.8 7.9 8.0 8.0 8.1
6.3 6.1 6.5 6.4 6.5 6.8 7.3 6.9 6.5 6.8 7.3 7.1 7.8 8.3 8.1 7.9 8.5 8.2 8.1 7.8 7.7 7.7 7.7 7.7 7.7 7.7 7.7 7.6 7.7 7.8 7.9 8.0 8.4
6.4 6.1 6.2 6.3 6.5 6.7 6.8 7.4 7.3 7.0 6.9 7.7 7.9 7.8 7.9 8.0 8.1 8.0 8.1 8.1 8.0 7.9 8.0 8.0 8.0 8.0 7.9 7.7 7.6 7.6 7.8 7.8 7.7
6.1 5.8 6.0 6.2 6.3 6.5 6.8 7.3 7.3 7.5 7.3 7.1 7.4 8.1 8.0 8.2 8.2 8.1 7.9 8.0 8.0 8.0 8.2 8.1 8.0 7.8 7.5 7.4 7.4 7.5 7.6 7.1 7.5
5.7 5.6 5.4 6.2 6.5 6.2 6.5 6.9 7.0 7.0 7.0 7.2 7.4 7.5 7.7 7.6 7.4 7.5 7.6 7.9 8.2 7.9 7.9 7.9 7.8 7.7 7.5 7.2 7.2 7.2 6.4 6.5 6.7
Wind_Speed
13 16 15 17 19 17 18 20 19 18 18 16 15 15 14 12 11 8 7 8 4 5 5 5 6 8 7 8 5 5 5 3 4
7 4 11 15 17 18 19 19 21 21 19 17 15 17 14 12 10 9 8 7 7 5 5 5 6 7 8 7 7 7 6 4 5
6 4 7 11 16 18 17 18 18 18 18 19 17 17 14 13 13 11 8 7 9 8 7 6 6 6 6 6 7 7 6 5 6
8 10 8 11 14 13 12 13 15 15 14 16 14 14 13 12 12 11 9 9 8 8 6 7 6 6 6 7 7 8 7 8 8
8 9 9 5 9 10 9 13 14 16 15 14 14 15 14 15 12 11 11 11 9 8 9 7 8 6 6 6 7 7 8 9 9
7 7 9 5 5 8 10 13 14 15 15 16 14 11 11 11 12 11 12 12 11 10 10 9 8 7 8 8 8 7 8 8 8
9 9 8 6 3 6 12 13 17 17 18 17 16 15 14 13 12 14 13 12 12 11 11 11 9 9 9 9 9 9 9 8 8
13 8 10 8 5 4 5 8 12 14 13 13 16 16 15 16 14 12 10 10 10 10 10 11 10 8 9 10 9 8 10 10 9
20 19 12 4 2 5 6 6 9 11 12 14 15 15 16 14 12 11 11 10 10 9 10 9 8 9 10 11 10 14 15 13 10
19 21 19 9 3 3 2 4 7 11 11 10 12 13 12 11 11 12 12 10 9 10 11 9 9 10 10 12 13 13 16 17 12
21 22 19 6 6 8 9 9 7 6 7 10 10 7 7 6 9 10 8 9 11 11 9 10 11 10 11 12 12 15 17 17 15
17 18 15 11 10 10 12 12 7 7 8 7 6 6 6 6 7 8 9 10 10 9 9 9 10 10 11 13 14 15 17 13 11
17 17 12 12 12 11 13 12 13 15 11 12 9 5 5 3 5 5 6 6 7 6 7 11 9 11 12 12 15 12 16 15 9
12 11 11 11 8 10 10 10 10 12 10 12 7 5 7 4 3 5 3 1 3 4 6 6 7 9 10 11 12 11 13 17 10
10 12 11 8 8 4 4 7 6 5 6 5 9 5 2 1 2 6 4 3 2 2 4 5 7 8 8 5 4 3 6 14 18
7 8 9 8 5 8 3 1 2 4 4 3 2 3 5 8 8 6 5 6 6 3 3 4 5 5 6 5 4 4 7 10 14
6 5 7 6 5 7 8 4 2 1 2 4 6 8 6 4 4 5 6 4 4 4 4 3 5 4 6 5 4 4 3 2 5
10 8 5 5 5 4 7 8 6 0 1 2 3 2 2 3 3 3 3 4 3 3 4 4 4 4 4 3 4 3 4 5 6
7 8 4 3 2 1 4 7 7 7 8 7 6 3 1 2 2 2 1 2 2 6 5 9 6 9 6 2 8 12 14 14 17
7 4 4 4 3 2 3 4 6 6 6 5 6 4 3 3 4 2 1 0 2 1 2 14 22 16 15 11 10 12 14 19 15
Wind_Direction
204 202 202 200 200 196 190 183 182 181 183 190 186 187 196 196 192 192 194 190 178 194 199 206 211 209 212 212 198 194 202 203 213
347 257 199 201 200 195 188 186 184 184 183 188 190 193 194 195 190 191 192 186 190 194 197 217 215 202 208 208 201 203 196 208 218
311 278 260 224 205 199 191 189 189 182 182 184 190 194 194 197 195 197 189 183 196 194 202 207 203 203 203 203 207 206 194 207 223
310 308 290 230 214 199 186 178 180 186 185 184 185 191 193 194 195 196 189 196 202 206 203 206 205 205 206 207 210 207 204 215 223
305 301 311 263 184 177 164 178 176 182 181 183 195 191 185 195 192 190 192 198 199 196 213 209 213 204 212 213 215 210 211 219 224
294 296 315 352 145 170 177 177 180 184 185 187 182 180 193 192 189 185 197 201 203 199 211 212 211 206 212 217 216 212 220 221 224
294 291 279 294 293 218 199 194 191 191 189 185 178 177 184 191 200 201 200 198 200 202 213 214 208 213 220 218 218 217 221 220 225
331 275 276 268 268 280 254 235 203 195 199 191 177 181 189 196 194 200 197 195 200 202 206 216 211 202 215 222 220 225 218 217 220
334 325 310 226 238 351 315 235 219 202 198 189 181 186 190 195 187 181 190 191 194 196 213 220 210 217 216 219 228 227 213 212 219
338 327 324 324 143 235 254 307 245 210 199 180 188 196 191 181 179 183 190 187 185 203 212 219 220 223 221 228 232 224 216 209 225
343 342 347 2 27 17 5 353 299 192 170 176 175 191 176 179 180 182 175 178 194 204 207 215 226 230 224 230 236 217 218 210 223
341 342 342 352 30 36 26 17 17 77 88 99 121 148 158 161 163 167 174 191 200 203 202 217 223 227 227 227 242 219 218 195 218
331 336 340 347 4 32 34 20 44 53 46 70 67 58 68 112 175 179 192 198 201 206 214 224 226 235 232 230 245 224 216 194 215
318 319 328 330 5 36 12 7 36 45 33 38 6 17 64 72 59 97 90 149 189 208 218 232 233 237 241 239 237 244 214 194 209
313 318 325 322 329 15 13 11 15 55 57 347 4 6 306 249 274 65 37 15 331 305 251 232 234 239 249 240 254 249 241 209 207
289 302 313 303 295 295 303 77 60 39 345 346 297 216 353 351 24 34 32 359 331 322 295 259 255 235 248 256 246 256 242 234 223
274 285 291 287 283 303 306 350 46 322 280 346 3 23 6 346 17 26 42 27 355 322 303 293 285 237 238 232 208 227 232 146 122
263 272 277 266 249 268 292 317 333 278 243 252 349 16 311 112 91 81 92 75 1 319 289 283 265 259 254 217 219 200 147 143 134
242 258 244 232 259 288 305 323 324 335 348 344 346 9 23 46 98 108 127 156 136 61 44 27 23 256 232 38 115 119 108 100 103
216 244 185 165 199 253 281 301 320 340 341 342 334 331 22 36 32 25 38 193 208 174 55 55 38 35 42 67 99 86 111 116 96